This is the latest recevied weather packets stored in our database for station/object K5GTX. If no packets are shown the sender has not sent any weather packets the latest 10 day(s).
| Time | Temp. | Humidity | Pressure | Rain* | Wind** | Luminosity | Snow |
|---|---|---|---|---|---|---|---|
| 1777826540 | 24.44° C | 99% | 1027.3 hPa | 0 mm | - | 656 W/m² | - |
| 1777826235 | 24.44° C | 99% | 1027.4 hPa | 0 mm | - | 620 W/m² | - |
| 1777825934 | 24.44° C | 99% | 1027.7 hPa | 0 mm | - | 526 W/m² | - |
| 1777825630 | 24.44° C | 99% | 1027.7 hPa | 0 mm | - | 509 W/m² | - |
| 1777825329 | 24.44° C | 99% | 1027.6 hPa | 0 mm | - | 746 W/m² | - |
| 1777825025 | 23.89° C | 99% | 1027.6 hPa | 0 mm | - | 659 W/m² | - |
| 1777824721 | 24.44° C | 99% | 1027.7 hPa | 0 mm | - | 601 W/m² | - |
| 1777824418 | 24.44° C | 99% | 1027.6 hPa | 0 mm | - | 329 W/m² | - |
| 1777824114 | 23.89° C | 99% | 1027.7 hPa | 0 mm | - | 437 W/m² | - |
| 1777823810 | 23.89° C | 99% | 1027.7 hPa | 0 mm | - | 481 W/m² | - |
| 1777823508 | 23.89° C | 99% | 1027.7 hPa | 0 mm | - | 484 W/m² | - |
| 1777823204 | 23.89° C | 99% | 1028 hPa | 0 mm | - | 581 W/m² | - |
| 1777822903 | 23.33° C | 99% | 1027.7 hPa | 0 mm | - | 547 W/m² | - |
| 1777822600 | 23.33° C | 99% | 1027.7 hPa | 0 mm | - | 613 W/m² | - |
| 1777822297 | 23.33° C | 99% | 1027.7 hPa | 0 mm | - | 491 W/m² | - |
| 1777821995 | 22.78° C | 99% | 1027.6 hPa | 0 mm | - | 577 W/m² | - |
| 1777821693 | 22.78° C | 99% | 1027.6 hPa | 0 mm | - | 530 W/m² | - |
| 1777821390 | 22.78° C | 99% | 1027.5 hPa | 0 mm | - | 533 W/m² | - |
| 1777821087 | 22.78° C | 99% | 1027.6 hPa | 0 mm | - | 522 W/m² | - |
| 1777820784 | 22.78° C | 99% | 1027.6 hPa | 0 mm | - | 495 W/m² | - |
| 1777820480 | 22.22° C | 99% | 1027.6 hPa | 0 mm | - | 508 W/m² | - |
| 1777820177 | 22.22° C | 99% | 1027.8 hPa | 0 mm | - | 462 W/m² | - |
| 1777819874 | 21.67° C | 99% | 1027.5 hPa | 0 mm | - | 502 W/m² | - |
| 1777819572 | 21.67° C | 99% | 1027.7 hPa | 0 mm | - | 472 W/m² | - |
| 1777819269 | 22.22° C | 99% | 1027.7 hPa | 0 mm | - | 424 W/m² | - |
* Rain latest hour (hover to see other rain measurements)
** Current wind speed in m/s (hover to see current wind gust speed)